Location: Hamilton
(37.7830°S, 175.2830°E)
Time: 13:46:43
(UTC+13:00)

Meteor 1-25 Rocket - Pass Details

Date: 24 January 2019
Orbit: 837 x 892 km, 81.2° (Epoch: 13 October)

Event Time Altitude Azimuth Distance (km) Brightness Sun altitude
Rises 23:13:05 0° 189° (S) 3,521 8.4 -24.4°
Reaches altitude 10° 23:15:32 10° 188° (S) 2,581 7.5 -24.7°
Maximum altitude 23:21:27 86° 98° (E) 907 4.2 -25.4°
Enters shadow 23:22:24 65° 16° (NNE) 985 4.2 -25.5°
